Welcome to the New NWS' Forecast!
Most changes are behind the scenes, but click here for differences you might notice.

Regional Weather Roundup (RWR)

Issued by Little Rock, AR (LZK)

                            
814 
ASUS44 KLZK 150805
RWRLZK

WEATHER ROUNDUP FOR ARKANSAS
NATIONAL WEATHER SERVICE LITTLE ROCK AR
300 AM CDT WED AUG 15 2018

NOTE: "FAIR" INDICATES FEW OR NO CLOUDS BELOW 12,000 FEET WITH NO
SIGNIFICANT WEATHER AND/OR OBSTRUCTIONS TO VISIBILITY.

ARZ001-003-010-029-150900-
NORTHWEST ARKANSAS
  
CITY           SKY/WX    TMP DP  RH WIND       PRES   REMARKS
FAYETTEVILLE   CLOUDY    73  70  90 S9        29.93F                  
FORT SMITH     CLOUDY    72  71  97 NE7       29.92R                  
HARRISON       MOCLDY    71  70  96 S12       29.94F                  
BENTONVILLE    LGT RAIN  73  70  90 SW7       29.95S                  
ROGERS         LGT RAIN  72  70  93 S7        29.94S FOG              
SILOAM SPGS    TSTM      72  70  93 SW13      29.96R FOG              
HIGHFILL       CLOUDY    72  68  87 SW3       29.94S                  
$$

ARZ004-005-016-150900-
NORTH CENTRAL ARKANSAS
  
CITY           SKY/WX    TMP DP  RH WIND       PRES   REMARKS
BATESVILLE     CLOUDY    74  72  93 SE6       29.97F                  
FLIPPIN        CLOUDY    69  68  96 CALM      29.94F                  
MTN HOME       CLOUDY    70  70 100 S6        29.94F                  
$$

ARZ040-041-150900-
WEST CENTRAL ARKANSAS
  
CITY           SKY/WX    TMP DP  RH WIND       PRES   REMARKS
MENA           CLOUDY    81  73  78 SW7       29.98S HX  85           
MOUNT IDA      CLOUDY    80  72  76 VRB3      29.95                   
$$

ARZ009-017-025-026-028-150900-
NORTHEAST ARKANSAS
  
CITY           SKY/WX    TMP DP  RH WIND       PRES   REMARKS
CORNING        CLOUDY    73  73 100 SE5       29.96F                  
JONESBORO      FAIR      75  75 100 CALM      29.97F                  
NEWPORT        FAIR      73  72  96 S5        29.96F                  
WALNUT RIDGE     N/A     73  72  96 CALM      29.96F                  
BLYTHEVILLE    CLOUDY    77  72  84 SE5       29.98F                  
$$

ARZ022-023-033-042-044-150900-
CENTRAL ARKANSAS
  
CITY           SKY/WX    TMP DP  RH WIND       PRES   REMARKS
LITTLE ROCK    CLOUDY    75  74  96 S8        29.96S                  
N LITTLE ROCK    N/A     77  73  88 S5        29.97F                  
JACKSONVILLE   CLOUDY    76  74  93 SE3       29.95F                  
CONWAY           N/A     77  73  88 S6        29.94F                  
SEARCY         FAIR      75  75 100 CALM      29.97F                  
HOT SPRINGS    CLOUDY    79  75  87 CALM      29.97R                  
RUSSELLVILLE   CLOUDY    72  71  97 CALM      29.93F                  
CLINTON        MOCLDY    70  68  94 CALM      29.97S FOG              
$$

ARZ036-150900-
EAST ARKANSAS
  
CITY           SKY/WX    TMP DP  RH WIND       PRES   REMARKS
WEST MEMPHIS   FAIR      76  73  91 S6        29.98S                  
$$

ARZ050-053-066-070-073-150900-
SOUTHWEST ARKANSAS
  
CITY           SKY/WX    TMP DP  RH WIND       PRES   REMARKS
ARKADELPHIA    FAIR      75  74  96 CALM      29.97R                  
CAMDEN         FAIR      77  72  83 S3        29.97R                  
TEXARKANA      CLOUDY    79  71  76 S8        29.96R                  
EL DORADO      FAIR      78  72  81 SE5       29.98S                  
DE QUEEN       CLOUDY    75  74  96 CALM      29.94R                  
$$

ARZ056-057-069-150900-
SOUTHEAST ARKANSAS
  
CITY           SKY/WX    TMP DP  RH WIND       PRES   REMARKS
PINE BLUFF     FAIR      76  71  85 S5        29.97S                  
STUTTGART      FAIR      78  73  84 S8        29.97S                  
MONTICELLO     FAIR      78  73  84 S6        29.99R                  

$$